Location: Oshawa
(43.9000°N, 78.8670°W)
Time: 19:10:49
(UTC-04:00)

ITAMSAT 1 - Visible Passes

Search period start: 01 July 2015 00:00
Search period end: 11 July 2015 00:00
Orbit: 785 x 796 km, 98.7° (Epoch: 01 July)

Date Brightness Start Highest point End Pass type
(mag) Time Alt. Az. Time Alt. Az. Time Alt. Az.
01 Jul 10.1 02:24:28 10° ENE 02:26:28 12° E 02:28:47 10° ESE visible
01 Jul 7.7 04:01:30 10° NNE 04:06:47 85° WNW 04:11:11 15° SSW visible
02 Jul 8.2 03:32:21 10° NNE 03:37:29 53° E 03:41:33 16° S visible
03 Jul 9.2 03:03:33 10° NE 03:08:03 29° E 03:11:55 13° SSE visible
03 Jul 8.4 04:42:49 10° N 04:47:39 38° WNW 04:52:23 10° SW visible
04 Jul 9.9 02:35:21 10° NE 02:38:26 16° E 02:41:43 10° SE visible
04 Jul 7.8 04:13:19 10° N 04:18:31 67° WNW 04:23:01 14° SSW visible
05 Jul 7.9 03:44:03 10° NNE 03:49:17 68° ESE 03:53:23 17° S visible
06 Jul 8.8 03:15:06 10° NNE 03:19:54 37° E 03:23:44 15° SSE visible
06 Jul 8.7 04:54:46 10° N 04:59:20 30° WNW 05:03:47 10° SW visible
07 Jul 9.7 02:46:35 10° NE 02:50:22 21° E 02:54:06 11° SE visible
07 Jul 8.0 04:25:09 10° N 04:30:15 53° WNW 04:34:51 12° SW visible
08 Jul 10.2 02:19:40 10° ENE 02:20:38 11° E 02:21:58 10° E visible
08 Jul 7.7 03:55:48 10° NNE 04:01:04 86° ESE 04:05:11 17° SSW visible
09 Jul 8.4 03:26:42 10° NNE 03:31:44 47° E 03:35:33 17° SSE visible
09 Jul 9.0 05:06:47 10° N 05:11:00 25° WNW 05:15:05 10° WSW visible
10 Jul 9.3 02:57:59 10° NE 03:02:16 26° E 03:05:54 13° SE visible
10 Jul 8.3 04:37:02 10° N 04:41:57 42° WNW 04:46:38 11° SW visible
